Caslav, Czech Republic

8:32 AM CET on February 10, 2016 (GMT +0100)
Caslav

Weather History for LKCV - November, 2012

Change the Weather History Date:

Friday, November 9, 2012

  Actual Average Record
Temperature  
Mean Temperature 44 °F -  
Max Temperature 50 °F - - ()
Min Temperature 37 °F - - ()
Degree Days  
Heating Degree Days 20    
Moisture  
Dew Point 41 °F    
Average Humidity 86    
Maximum Humidity 93    
Minimum Humidity 71    
Precipitation  
Precipitation 0.00 in - - ()
Sea Level Pressure  
Sea Level Pressure 30.07 in    
Wind  
Wind Speed 5 mph ()    
Max Wind Speed 8 mph    
Max Gust Speed -    
Visibility 6.2 miles    
Events      
T = Trace of Precipitation, MM = Missing Value Source: Averaged Metar Reports

Daily Weather History Graph

Daily Weather History Graph

Search for Another Location

Airport or City:

Trip Planner

Search our weather history database for the weather conditions in past years. The results will help you decide how hot, cold, wet, or windy it might be!

Date:

Astronomy

Nov. 09, 2012 Rise Set
Actual Time 7:01 AM CET 4:22 PM CET
Civil Twilight 6:26 AM CET 4:57 PM CET
Nautical Twilight 5:48 AM CET 5:35 PM CET
Astronomical Twilight 5:10 AM CET 6:13 PM CET
Moon 1:13 AM CET (11/9) 1:51 PM CET (11/9)
Length of Visible Light 10h 30m
Length of Day
9h 20m
Waning Crescent, 25% of the Moon is Illuminated
Nov 9
Waning Crescent
Nov 13
New
Nov 20
First Quarter
Nov 28
Full
Dec 6
Last Quarter

Hourly Weather History & Observations

Time (CET) Temp. Windchill Dew Point Humidity Pressure Visibility Wind Dir Wind Speed Gust Speed Precip Events Conditions
12:00 AM 44.6 °F 40.7 °F 42.8 °F 93% 30.04 in 6.2 mi West 6.9 mph - N/A   Mostly Cloudy
1:00 AM 44.6 °F 41.4 °F 42.8 °F 93% 30.04 in - WSW 5.8 mph - N/A   Clear
2:00 AM 44.6 °F 41.4 °F 41.0 °F 87% 30.04 in 6.2 mi WSW 5.8 mph - N/A   Overcast
3:00 AM 44.6 °F 40.2 °F 41.0 °F 87% 30.04 in 6.2 mi WSW 8.1 mph - N/A   Mostly Cloudy
4:00 AM 44.6 °F 41.4 °F 41.0 °F 87% 30.04 in - West 5.8 mph - N/A   Clear
5:00 AM 44.6 °F 43.1 °F 41.0 °F 87% 30.06 in - West 3.5 mph - N/A   Clear
6:00 AM 44.6 °F 41.4 °F 41.0 °F 87% 30.06 in - West 5.8 mph - N/A   Clear
7:00 AM 44.6 °F 40.7 °F 41.0 °F 87% 30.06 in - West 6.9 mph - N/A   Clear
8:00 AM 44.6 °F 42.2 °F 41.0 °F 87% 30.09 in 6.2 mi WSW 4.6 mph - N/A   Mostly Cloudy
9:00 AM 46.4 °F 43.5 °F 41.0 °F 81% 30.09 in 6.2 mi West 5.8 mph - N/A   Overcast
10:00 AM 46.4 °F 42.9 °F 42.8 °F 87% 30.09 in - West 6.9 mph - N/A   Clear
11:00 AM 48.2 °F - 42.8 °F 82% 30.12 in 6.2 mi West 5.8 mph - N/A   Overcast
12:00 PM 48.2 °F - 41.0 °F 76% 30.12 in 6.2 mi West 5.8 mph - N/A   Mostly Cloudy
1:00 PM 50.0 °F - 42.8 °F 76% 30.09 in 6.2 mi West 4.6 mph - N/A   Mostly Cloudy
2:00 PM 50.0 °F - 42.8 °F 76% 30.09 in 6.2 mi West 3.5 mph - N/A   Mostly Cloudy
3:00 PM 50.0 °F - 41.0 °F 71% 30.09 in 6.2 mi Variable 1.2 mph - N/A   Scattered Clouds
4:00 PM 46.4 °F - 42.8 °F 87% 30.09 in - East 1.2 mph - N/A   Clear
5:00 PM 44.6 °F 43.1 °F 41.0 °F 87% 30.09 in - SE 3.5 mph - N/A   Clear
6:00 PM 42.8 °F 41.1 °F 41.0 °F 93% 30.06 in - ESE 3.5 mph - N/A   Clear
7:00 PM 41.0 °F 39.0 °F 39.2 °F 93% 30.06 in 6.2 mi SE 3.5 mph - N/A   Partly Cloudy
8:00 PM 41.0 °F 39.0 °F 37.4 °F 87% 30.06 in - ESE 3.5 mph - N/A   Clear
9:00 PM 41.0 °F 35.8 °F 37.4 °F 87% 30.06 in - SE 8.1 mph - N/A   Clear
10:00 PM 39.2 °F 35.0 °F 37.4 °F 93% 30.06 in - SSE 5.8 mph - N/A   Clear
11:00 PM 37.4 °F - 35.6 °F 93% 30.04 in - SSE 2.3 mph - N/A   Clear